Precipitable_Water
0.40 0.39 0.35 0.33 0.33 0.36 0.34 0.33 0.26 0.26 0.24 0.25 0.26 0.24 0.21 0.21 0.20 0.19 0.20 0.21 0.22 0.22 0.22 0.26 0.28 0.27 0.29 0.30 0.32 0.34 0.34 0.36 0.39 0.42 0.43 0.43 0.51 0.55 0.55 0.54 0.52 0.54 0.59 0.60
0.37 0.40 0.39 0.36 0.36 0.34 0.33 0.32 0.29 0.27 0.24 0.23 0.22 0.20 0.18 0.18 0.17 0.17 0.19 0.20 0.19 0.20 0.21 0.22 0.24 0.25 0.27 0.27 0.28 0.32 0.32 0.30 0.32 0.36 0.37 0.38 0.39 0.46 0.48 0.47 0.47 0.48 0.51 0.56
0.33 0.36 0.33 0.27 0.30 0.31 0.30 0.28 0.23 0.17 0.17 0.18 0.17 0.17 0.16 0.16 0.15 0.16 0.17 0.16 0.17 0.19 0.21 0.23 0.25 0.26 0.28 0.29 0.30 0.31 0.32 0.32 0.31 0.33 0.35 0.34 0.34 0.38 0.42 0.44 0.46 0.44 0.45 0.50
0.31 0.30 0.22 0.27 0.29 0.25 0.22 0.19 0.18 0.17 0.17 0.17 0.17 0.16 0.16 0.16 0.17 0.18 0.19 0.19 0.20 0.21 0.22 0.23 0.23 0.25 0.29 0.30 0.30 0.29 0.30 0.29 0.27 0.28 0.30 0.34 0.35 0.35 0.37 0.42 0.44 0.44 0.45 0.45
0.27 0.25 0.24 0.23 0.22 0.19 0.17 0.15 0.17 0.16 0.16 0.16 0.16 0.16 0.13 0.17 0.20 0.21 0.24 0.26 0.27 0.28 0.29 0.30 0.31 0.30 0.29 0.29 0.30 0.32 0.30 0.30 0.30 0.32 0.32 0.31 0.32 0.34 0.35 0.34 0.39 0.44 0.45 0.44
0.26 0.21 0.16 0.19 0.22 0.23 0.20 0.13 0.20 0.17 0.15 0.14 0.15 0.12 0.13 0.22 0.27 0.29 0.32 0.34 0.34 0.35 0.35 0.35 0.36 0.38 0.37 0.36 0.35 0.33 0.35 0.36 0.38 0.36 0.36 0.35 0.35 0.36 0.37 0.36 0.33 0.37 0.40 0.44
0.22 0.19 0.19 0.22 0.24 0.20 0.11 0.14 0.18 0.16 0.15 0.16 0.17 0.23 0.23 0.25 0.27 0.32 0.33 0.34 0.36 0.36 0.35 0.38 0.40 0.41 0.40 0.40 0.39 0.41 0.41 0.40 0.40 0.40 0.40 0.41 0.40 0.39 0.38 0.38 0.38 0.36 0.38 0.41
0.22 0.19 0.15 0.22 0.19 0.12 0.15 0.17 0.15 0.16 0.18 0.23 0.25 0.23 0.22 0.24 0.26 0.31 0.33 0.34 0.36 0.35 0.36 0.38 0.41 0.41 0.39 0.40 0.45 0.45 0.45 0.44 0.42 0.40 0.42 0.43 0.42 0.40 0.40 0.40 0.40 0.40 0.38 0.38
0.19 0.16 0.18 0.17 0.16 0.17 0.15 0.15 0.18 0.22 0.28 0.28 0.21 0.19 0.19 0.22 0.25 0.29 0.33 0.35 0.36 0.37 0.38 0.40 0.42 0.42 0.39 0.41 0.46 0.50 0.50 0.46 0.46 0.46 0.46 0.46 0.44 0.42 0.41 0.42 0.41 0.39 0.38 0.36
0.15 0.16 0.15 0.17 0.16 0.16 0.18 0.19 0.27 0.30 0.27 0.21 0.19 0.19 0.21 0.21 0.24 0.28 0.33 0.36 0.38 0.38 0.37 0.38 0.41 0.42 0.45 0.45 0.47 0.47 0.47 0.46 0.46 0.47 0.47 0.49 0.49 0.48 0.46 0.45 0.42 0.41 0.38 0.37
0.14 0.15 0.15 0.15 0.14 0.17 0.20 0.28 0.27 0.23 0.20 0.20 0.20 0.20 0.20 0.20 0.22 0.28 0.35 0.37 0.39 0.38 0.39 0.39 0.43 0.44 0.48 0.48 0.49 0.47 0.47 0.46 0.48 0.48 0.48 0.47 0.47 0.49 0.48 0.49 0.47 0.43 0.40 0.41
0.13 0.16 0.14 0.16 0.19 0.24 0.27 0.24 0.21 0.19 0.19 0.19 0.19 0.19 0.21 0.20 0.24 0.29 0.35 0.38 0.38 0.39 0.39 0.41 0.43 0.44 0.48 0.50 0.50 0.48 0.45 0.47 0.46 0.46 0.46 0.43 0.42 0.43 0.48 0.48 0.48 0.48 0.48 0.47
0.16 0.18 0.17 0.20 0.25 0.30 0.25 0.21 0.21 0.21 0.20 0.18 0.20 0.21 0.21 0.21 0.23 0.29 0.35 0.37 0.39 0.39 0.41 0.42 0.43 0.44 0.47 0.48 0.49 0.47 0.45 0.46 0.47 0.46 0.44 0.40 0.38 0.39 0.41 0.46 0.48 0.48 0.49 0.49
0.17 0.19 0.18 0.24 0.26 0.29 0.24 0.23 0.23 0.22 0.22 0.21 0.20 0.21 0.21 0.21 0.23 0.26 0.33 0.39 0.41 0.40 0.41 0.42 0.42 0.42 0.46 0.47 0.46 0.45 0.46 0.46 0.46 0.45 0.41 0.39 0.37 0.41 0.43 0.41 0.39 0.41 0.46 0.46
0.17 0.20 0.25 0.32 0.29 0.24 0.24 0.25 0.22 0.21 0.21 0.19 0.21 0.20 0.19 0.18 0.19 0.21 0.30 0.39 0.40 0.40 0.40 0.41 0.42 0.43 0.46 0.47 0.46 0.44 0.45 0.45 0.44 0.43 0.42 0.39 0.42 0.43 0.42 0.41 0.40 0.41 0.42 0.44
0.20 0.26 0.34 0.29 0.23 0.23 0.24 0.23 0.22 0.20 0.20 0.19 0.19 0.18 0.18 0.18 0.18 0.18 0.21 0.32 0.37 0.37 0.40 0.39 0.40 0.43 0.46 0.46 0.46 0.46 0.45 0.44 0.43 0.42 0.41 0.39 0.43 0.41 0.41 0.40 0.39 0.39 0.39 0.40
0.28 0.30 0.27 0.23 0.22 0.23 0.24 0.24 0.22 0.20 0.19 0.19 0.18 0.18 0.17 0.16 0.15 0.14 0.15 0.21 0.32 0.39 0.42 0.42 0.39 0.43 0.44 0.45 0.45 0.45 0.45 0.44 0.42 0.40 0.40 0.38 0.42 0.41 0.41 0.40 0.39 0.39 0.39 0.41
0.34 0.31 0.27 0.25 0.23 0.24 0.23 0.23 0.21 0.20 0.19 0.19 0.19 0.18 0.16 0.15 0.15 0.15 0.15 0.15 0.19 0.25 0.39 0.42 0.44 0.42 0.42 0.43 0.43 0.43 0.43 0.42 0.40 0.39 0.39 0.38 0.37 0.42 0.41 0.40 0.40 0.39 0.39 0.40
0.32 0.29 0.27 0.25 0.24 0.24 0.24 0.23 0.22 0.21 0.20 0.19 0.18 0.17 0.17 0.17 0.17 0.17 0.17 0.16 0.17 0.15 0.18 0.33 0.42 0.43 0.42 0.43 0.44 0.43 0.42 0.41 0.41 0.40 0.40 0.38 0.36 0.40 0.41 0.41 0.40 0.40 0.39 0.39
0.27 0.26 0.25 0.24 0.24 0.26 0.25 0.24 0.25 0.22 0.21 0.21 0.20 0.18 0.18 0.19 0.19 0.18 0.18 0.17 0.18 0.17 0.17 0.17 0.29 0.39 0.43 0.44 0.44 0.44 0.44 0.43 0.41 0.40 0.39 0.38 0.36 0.37 0.40 0.41 0.40 0.39 0.37 0.36
0.24 0.24 0.24 0.25 0.25 0.27 0.28 0.28 0.26 0.24 0.24 0.23 0.20 0.20 0.19 0.20 0.20 0.21 0.20 0.18 0.19 0.19 0.17 0.17 0.17 0.27 0.39 0.43 0.43 0.43 0.43 0.42 0.41 0.40 0.39 0.38 0.36 0.37 0.39 0.40 0.40 0.39 0.37 0.34
0.24 0.24 0.26 0.27 0.27 0.28 0.30 0.31 0.30 0.28 0.28 0.27 0.25 0.24 0.23 0.22 0.22 0.22 0.23 0.21 0.21 0.19 0.18 0.17 0.17 0.19 0.26 0.39 0.42 0.42 0.42 0.42 0.41 0.41 0.40 0.39 0.38 0.38 0.39 0.39 0.39 0.39 0.37 0.34
0.25 0.27 0.30 0.30 0.30 0.31 0.33 0.33 0.33 0.32 0.29 0.29 0.27 0.26 0.26 0.25 0.24 0.22 0.20 0.22 0.20 0.19 0.17 0.16 0.17 0.17 0.20 0.27 0.39 0.41 0.40 0.40 0.40 0.40 0.40 0.40 0.40 0.39 0.40 0.39 0.39 0.38 0.36 0.34
0.31 0.33 0.33 0.35 0.35 0.33 0.31 0.33 0.34 0.35 0.33 0.31 0.30 0.30 0.27 0.25 0.25 0.25 0.23 0.22 0.19 0.18 0.16 0.16 0.16 0.16 0.17 0.23 0.30 0.39 0.40 0.39 0.39 0.40 0.40 0.40 0.40 0.40 0.40 0.40 0.39 0.38 0.37 0.34
0.31 0.32 0.33 0.30 0.28 0.28 0.29 0.32 0.33 0.33 0.32 0.31 0.31 0.30 0.29 0.28 0.24 0.23 0.22 0.20 0.19 0.17 0.16 0.15 0.15 0.15 0.17 0.21 0.26 0.33 0.38 0.40 0.39 0.39 0.40 0.40 0.40 0.40 0.40 0.40 0.40 0.38 0.37 0.35
0.27 0.26 0.26 0.26 0.26 0.27 0.27 0.27 0.26 0.27 0.27 0.26 0.26 0.26 0.26 0.25 0.23 0.21 0.19 0.18 0.16 0.15 0.13 0.14 0.15 0.15 0.16 0.17 0.23 0.29 0.35 0.39 0.39 0.38 0.39 0.40 0.40 0.40 0.40 0.40 0.40 0.39 0.37 0.34
0.25 0.24 0.23 0.23 0.22 0.22 0.22 0.22 0.21 0.21 0.22 0.22 0.21 0.22 0.20 0.20 0.18 0.17 0.16 0.15 0.14 0.14 0.14 0.14 0.14 0.14 0.15 0.16 0.19 0.27 0.32 0.37 0.39 0.39 0.39 0.40 0.40 0.40 0.41 0.40 0.40 0.38 0.35 0.32
Wind_Speed
23 21 22 24 25 27 30 31 31 34 39 37 37 39 41 41 43 45 45 45 47 49 49 49 47 47 46 44 41 40 38 37 35 34 33 32 32 31 30 29 29 29 28 27
23 25 27 30 32 33 33 34 37 37 37 36 36 38 41 42 43 44 46 48 50 50 51 51 50 48 46 43 41 38 37 36 36 36 36 35 34 33 32 32 31 29 28 28
25 25 26 31 35 35 33 31 31 32 32 33 36 39 41 42 44 46 48 49 49 49 49 49 47 45 43 42 42 41 40 39 38 38 38 37 36 36 35 34 33 32 30 29
22 22 26 24 22 24 26 26 29 32 33 34 35 39 42 42 44 44 44 44 45 45 43 41 39 39 39 40 42 44 43 41 40 39 39 37 38 38 37 37 36 34 32 30
23 26 25 26 26 24 26 27 29 31 31 32 36 40 43 39 38 42 44 45 44 44 42 41 41 40 40 38 37 34 37 40 39 38 38 38 38 38 38 37 37 35 34 32
23 24 24 19 19 22 24 30 24 26 31 35 37 38 38 39 41 43 43 42 42 41 41 40 40 40 40 39 38 36 34 31 31 34 37 37 36 35 35 35 37 36 35 33
24 25 24 23 23 22 25 23 26 31 34 35 36 36 40 41 41 40 39 38 37 36 36 37 37 38 38 38 37 37 35 33 31 29 29 29 31 32 32 32 33 34 34 32
24 24 27 21 21 24 24 27 31 32 34 33 35 36 38 39 37 35 33 33 34 35 36 38 40 41 40 38 36 35 34 34 33 32 31 31 31 30 30 31 31 31 31 31
22 23 20 22 21 24 28 30 30 32 31 32 35 35 36 34 32 30 32 34 36 36 37 40 41 40 40 38 35 33 30 30 31 33 34 34 35 34 32 31 30 29 30 30
22 25 23 24 27 27 27 28 28 29 30 31 32 32 30 28 28 30 32 34 35 35 36 38 37 36 34 30 29 28 28 26 26 27 27 28 29 31 32 29 28 28 28 28
26 26 25 28 28 26 26 26 26 26 27 28 27 26 25 27 28 30 31 33 33 34 36 36 33 29 26 24 22 22 20 20 20 19 19 19 19 19 18 22 25 25 26 27
26 26 26 23 22 24 24 22 22 23 21 21 20 22 24 26 27 28 30 31 31 32 33 31 29 26 24 20 17 16 16 15 14 14 15 16 16 15 15 17 19 21 22 23
29 26 24 23 23 21 18 18 18 16 16 17 19 21 23 24 25 27 28 30 29 30 28 26 24 21 18 15 13 13 12 13 13 15 16 16 15 15 15 15 16 17 19 20
25 22 23 22 19 15 14 14 12 13 14 16 18 19 21 23 24 25 26 28 27 25 24 24 23 19 16 14 12 11 12 12 13 15 15 15 15 15 16 14 13 13 14 16
21 21 19 15 14 13 12 11 12 14 15 16 17 19 21 22 23 24 25 26 25 24 22 22 21 20 16 14 11 11 10 11 12 14 14 13 13 13 11 9 8 8 9 10
18 15 14 14 13 12 12 12 14 15 15 16 17 18 20 21 23 24 25 26 25 24 23 21 20 19 16 14 13 11 11 12 12 12 12 11 11 9 8 4 3 4 6 8
11 13 13 12 12 12 13 14 15 16 16 17 18 19 20 21 23 24 25 25 25 25 23 22 21 20 18 17 15 14 14 14 14 12 11 10 9 7 4 2 1 3 6 9
11 11 11 12 13 14 16 17 17 18 18 18 19 20 21 22 23 24 25 25 25 24 23 24 22 22 20 19 19 18 17 17 15 15 13 10 8 6 4 3 3 5 8 11
11 12 13 15 16 18 19 19 20 20 21 21 22 22 23 24 24 25 26 26 25 25 26 26 25 22 21 20 20 19 19 18 17 16 14 12 9 8 7 7 6 7 9 11
13 16 18 19 20 22 22 23 23 24 24 25 25 25 26 26 27 28 28 27 27 27 28 28 26 24 22 21 20 18 18 18 18 17 15 14 12 11 10 11 11 10 11 11
17 19 21 23 25 26 27 27 27 28 29 29 29 30 30 30 31 30 31 30 30 30 31 30 28 26 24 22 20 18 17 17 17 16 15 15 15 14 14 14 14 14 13 13
22 24 26 27 29 30 30 31 31 32 32 32 33 33 34 35 35 35 34 35 35 35 34 32 30 29 27 25 22 19 18 17 17 17 17 16 16 17 17 18 18 17 16 15
26 28 30 31 32 34 34 34 35 35 35 35 36 36 37 37 37 38 38 37 38 38 37 35 34 32 29 26 24 21 20 18 17 18 18 18 18 18 19 19 20 20 19 17
31 32 33 33 33 35 36 37 37 38 37 36 36 36 37 37 38 38 38 39 38 37 37 36 35 33 31 28 25 23 21 19 18 17 18 19 19 19 20 20 20 20 19 18
29 30 30 30 32 32 33 33 34 35 36 37 37 37 38 39 40 40 40 40 40 39 37 36 34 33 31 29 27 25 23 21 19 18 18 19 20 21 21 21 21 20 19 19
28 29 30 31 32 33 33 34 35 34 35 37 38 39 40 40 41 41 41 40 40 39 37 35 33 31 30 30 29 27 26 24 22 20 19 20 21 22 22 22 22 21 20 20
30 31 32 33 33 34 34 35 35 36 36 38 40 41 41 42 42 42 42 40 39 37 36 35 33 32 31 30 30 29 28 27 25 24 23 22 23 23 23 23 22 22 21 21
Wind_Direction
257 260 262 261 257 255 255 261 266 272 274 281 285 287 290 291 294 295 296 297 300 300 300 299 297 297 294 291 289 288 286 284 281 280 279 279 279 279 279 281 281 282 280 280
259 264 265 264 262 261 261 264 267 272 276 282 285 287 290 293 296 297 298 300 300 300 299 297 295 293 291 290 288 286 284 282 280 279 277 277 278 277 277 278 278 280 281 279
262 261 265 268 259 257 259 262 267 270 279 285 287 291 294 297 297 298 299 300 300 300 299 297 294 292 291 289 287 284 282 281 280 278 276 276 276 276 275 276 275 276 277 278
258 258 264 269 267 260 255 262 269 274 281 287 291 293 296 298 297 298 300 301 301 301 301 301 298 295 293 293 289 283 279 279 278 277 276 276 276 275 274 273 272 273 273 274
257 256 274 259 257 257 256 267 274 280 286 289 294 296 298 298 301 302 301 300 299 299 298 298 296 295 293 292 295 295 283 280 277 276 275 276 276 275 273 271 269 268 268 270
257 261 262 260 251 260 269 274 273 281 288 294 298 296 299 304 303 302 301 300 299 299 298 298 298 296 292 290 288 286 288 290 284 278 276 275 275 274 273 270 267 265 264 265
253 259 266 257 257 262 270 279 280 289 293 296 296 297 302 304 304 304 304 303 303 302 301 300 300 298 295 291 287 283 282 282 283 284 284 281 277 271 272 271 268 263 261 260
251 258 264 250 255 265 279 284 290 292 295 295 298 301 302 304 305 306 307 309 307 305 303 303 301 298 294 290 288 285 281 279 278 279 280 280 280 278 274 270 266 262 259 257
252 262 264 251 268 276 283 287 291 294 294 297 300 302 304 304 304 306 308 310 311 308 307 307 305 300 295 288 283 283 282 281 278 280 279 278 277 275 272 268 263 261 258 255
257 259 258 261 274 279 284 288 292 293 297 300 301 304 305 305 305 308 311 313 313 311 311 313 312 308 302 292 282 279 282 282 284 285 284 283 281 276 267 261 260 260 256 254
262 265 267 270 274 277 284 288 291 295 299 301 303 305 306 308 309 310 312 315 316 314 316 315 315 313 310 299 290 283 279 283 288 290 291 293 291 291 272 256 258 259 254 251
265 265 265 270 273 278 280 284 291 295 300 305 307 310 312 313 314 315 316 319 320 320 321 319 316 312 312 304 292 284 283 284 289 293 301 300 297 294 282 272 265 258 253 247
264 266 266 270 274 271 273 280 287 293 301 308 313 315 318 319 319 320 320 323 323 325 327 330 329 323 318 313 301 291 282 288 290 294 302 303 298 296 291 282 271 260 253 247
259 260 263 264 263 254 266 275 285 297 305 312 315 319 321 323 325 325 326 327 325 325 326 332 335 330 323 317 307 294 291 291 294 300 304 305 302 301 300 289 271 259 251 241
255 253 257 251 242 249 260 272 289 298 307 313 317 321 325 326 328 330 331 332 329 326 324 325 330 332 325 318 309 303 297 297 302 306 308 310 310 310 307 294 273 256 240 227
244 242 232 230 236 248 260 278 290 297 304 309 315 321 324 327 328 331 333 334 336 332 325 323 322 325 324 318 308 301 298 301 305 308 310 311 312 313 316 312 300 250 212 196
205 207 214 228 242 256 270 280 287 293 299 305 310 315 319 323 326 330 332 333 333 335 331 325 319 316 312 305 301 295 294 294 296 301 306 308 310 305 309 308 54 118 148 163
208 222 235 245 257 268 277 281 285 289 294 300 305 309 312 317 321 324 327 330 330 331 332 332 322 315 306 300 295 289 286 286 287 287 290 295 291 280 264 222 164 142 139 142
232 246 253 261 268 274 280 282 283 286 290 293 298 301 304 309 313 316 319 321 324 327 328 329 327 319 314 307 298 287 282 278 280 281 275 272 266 254 237 214 192 171 160 156
256 263 268 270 274 276 280 281 283 284 286 289 291 294 297 301 305 308 311 313 315 317 321 322 320 320 316 309 301 291 283 278 273 271 267 256 249 240 229 215 204 195 186 182
270 273 275 277 277 278 279 281 282 283 284 284 286 289 292 295 298 301 303 305 308 310 312 313 314 311 311 311 305 295 284 276 269 262 258 249 241 235 227 217 211 205 201 198
279 281 282 282 280 280 280 280 281 282 282 283 285 286 288 291 293 295 296 297 300 302 303 303 303 304 302 301 299 293 286 277 267 258 252 246 239 231 225 219 214 211 209 210
285 286 286 284 282 281 281 280 280 280 281 282 284 285 287 289 291 293 294 295 296 297 297 295 295 295 293 291 288 287 281 275 267 258 250 242 236 229 223 218 216 215 215 216
289 288 287 287 286 284 283 282 281 280 279 281 283 285 286 289 290 292 293 295 295 295 294 291 290 288 285 282 279 277 276 270 264 257 247 238 231 226 220 216 213 213 215 217
291 291 289 290 290 290 289 287 285 282 281 282 283 285 287 288 289 291 292 292 292 292 292 291 288 284 278 274 272 268 266 263 257 252 243 234 227 222 217 215 214 215 218 220
294 294 294 294 293 293 292 291 289 287 286 285 285 286 287 288 289 290 290 290 290 289 288 287 284 282 276 269 265 263 258 254 250 244 239 231 224 219 216 216 217 219 222 222
294 295 296 295 295 295 293 293 291 290 289 288 288 288 288 289 289 289 289 289 288 286 285 283 281 277 274 268 260 257 253 248 244 240 235 230 224 219 217 218 219 221 222 222